FW7253 Weather Reports


time (UTC)temp
C
wind
direction
speed
KPH
gust
KPH
rain 1hr
cm
rain 24hr
cm
rain mn
cm
humidity
%
barometer
mb
20260506112533 11 193 8.0 19.3 0.00 0.00 0.00 33 1013.0
20260506112032 10 124 9.7 19.3 0.00 0.00 0.00 33 1013.1
20260506111541 10 209 4.8 12.9 0.00 0.00 0.00 31 1013.1
20260506111034 10 216 4.8 9.7 0.00 0.00 0.00 31 1013.1
20260506110534 10 42 4.8 14.5 0.00 0.00 0.00 33 1013.1
20260506110038 10 153 6.4 19.3 0.00 0.00 0.00 35 1013.2
20260506105531 10 92 4.8 19.3 0.00 0.00 0.00 34 1013.2
20260506105033 10 198 11.3 19.3 0.00 0.00 0.00 32 1013.1
20260506104545 10 231 4.8 11.3 0.00 0.00 0.00 34 1013.2
20260506104033 10 345 1.6 11.3 0.00 0.00 0.00 34 1013.3
20260506103533 10 345 3.2 11.3 0.00 0.00 0.00 35 1013.3
20260506103044 9 349 1.6 12.9 0.00 0.00 0.00 33 1013.3
20260506102533 9 330 3.2 12.9 0.00 0.00 0.00 35 1013.3
20260506102034 9 220 3.2 8.0 0.00 0.00 0.00 35 1013.3
20260506101543 9 349 3.2 8.0 0.00 0.00 0.00 34 1013.4
20260506101033 9 128 3.2 8.0 0.00 0.00 0.00 34 1013.4
20260506100533 9 278 4.8 17.7 0.00 0.00 0.00 36 1013.5
20260506100047 9 336 1.6 17.7 0.00 0.00 0.00 39 1013.5
20260506095533 10 325 9.7 17.7 0.00 0.00 0.00 35 1013.5
20260506095034 9 287 1.6 11.3 0.00 0.00 0.00 35 1013.6
20260506094549 8 321 1.6 11.3 0.00 0.00 0.00 36 1013.5
20260506094034 9 98 4.8 11.3 0.00 0.00 0.00 35 1013.6
20260506093536 9 107 4.8 9.7 0.00 0.00 0.00 37 1013.6
20260506093038 8 217 1.6 12.9 0.00 0.00 0.00 37 1013.5
20260506092533 8 240 3.2 12.9 0.00 0.00 0.00 38 1013.6
20260506092033 8 236 3.2 12.9 0.00 0.00 0.00 37 1013.7
20260506091546 8 345 6.4 12.9 0.00 0.00 0.00 35 1013.6
20260506091035 7 0 1.6 11.3 0.00 0.00 0.00 37 1013.6
20260506090533 8 283 6.4 11.3 0.00 0.00 0.00 39 1013.7
20260506090042 8 338 1.6 9.7 0.00 0.00 0.00 38 1013.7
20260506085533 8 87 3.2 11.3 0.00 0.00 0.00 39 1013.7
20260506085035 8 301 3.2 11.3 0.00 0.00 0.00 39 1013.7
20260506084546 7 39 6.4 11.3 0.00 0.00 0.00 41 1013.7
20260506084033 7 98 6.4 11.3 0.00 0.00 0.00 40 1013.8
20260506083533 7 120 1.6 11.3 0.00 0.00 0.00 41 1013.7
20260506083042 7 156 6.4 11.3 0.00 0.00 0.00 40 1013.7
20260506082532 7 153 3.2 9.7 0.00 0.00 0.00 42 1013.9
20260506082033 7 256 1.6 11.3 0.00 0.00 0.00 40 1013.9
20260506081545 7 309 3.2 11.3 0.00 0.00 0.00 41 1014.0
20260506081034 7 317 6.4 11.3 0.00 0.00 0.00 43 1014.0
20260506080533 7 293 3.2 12.9 0.00 0.00 0.00 42 1014.0
20260506073047 6 344 3.2 11.3 0.00 0.00 0.00 47 1014.0
20260506072533 6 31 6.4 11.3 0.00 0.00 0.00 47 1013.9
20260506072037 5 338 3.2 11.3 0.00 0.00 0.00 46 1013.9
20260506071542 5 20 6.4 14.5 0.00 0.00 0.00 47 1014.0
20260506071033 5 2 6.4 14.5 0.00 0.00 0.00 48 1013.9
20260506070533 5 341 8.0 14.5 0.00 0.00 0.00 48 1013.9
20260506062033 4 342 6.4 12.9 0.00 0.00 0.00 53 1013.9
20260506061545 3 346 8.0 17.7 0.00 0.00 0.00 53 1013.9
20260506061033 3 22 11.3 17.7 0.00 0.00 0.00 54 1014.0
20260506060534 3 328 9.7 14.5 0.00 0.00 0.00 54 1014.0
20260506051032 2 356 8.0 16.1 0.00 0.00 0.00 56 1013.7
20260506050534 2 347 8.0 16.1 0.00 0.00 0.00 56 1013.7
20260506045033 2 349 9.7 17.7 0.00 0.00 0.00 56 1013.6
20260506044551 2 15 9.7 17.7 0.00 0.00 0.00 56 1013.6
20260506044036 1 328 11.3 17.7 0.00 0.00 0.00 56 1013.7
20260506043536 1 338 9.7 14.5 0.00 0.00 0.00 57 1013.7
20260506043044 1 2 8.0 16.1 0.00 0.00 0.00 57 1013.6
20260506042533 1 290 9.7 16.1 0.00 0.00 0.00 57 1013.7
20260506042033 1 313 9.7 17.7 0.00 0.00 0.00 57 1013.7
20260506041541 1 347 11.3 17.7 0.00 0.00 0.00 58 1013.7
20260506041033 1 2 3.2 12.9 0.00 0.00 0.00 59 1013.7
20260506040533 1 0 0.0 14.5 0.00 0.00 0.00 59 1013.6
20260506040056 1 6 8.0 14.5 0.00 0.00 0.00 58 1013.6
20260506035538 1 344 6.4 14.5 0.00 0.00 0.00 58 1013.6
20260506035035 1 15 6.4 14.5 0.00 0.00 0.00 57 1013.6
20260506034538 1 7 9.7 16.1 0.00 0.00 0.00 57 1013.6
20260506034032 1 18 9.7 16.1 0.00 0.00 0.00 57 1013.6
20260506033534 1 9 9.7 16.1 0.00 0.00 0.00 57 1013.6
20260506033039 1 346 9.7 16.1 0.00 0.00 0.00 57 1013.6
20260506032533 1 342 9.7 14.5 0.00 0.00 0.00 57 1013.5
20260506032035 1 338 9.7 14.5 0.00 0.00 0.00 57 1013.5
20260506031556 1 358 9.7 16.1 0.00 0.00 0.00 57 1013.5
20260506031033 1 358 8.0 16.1 0.00 0.00 0.00 57 1013.5
20260506030534 1 357 8.0 16.1 0.00 0.00 0.00 57 1013.5
20260506030041 1 354 6.4 14.5 0.00 0.00 0.00 58 1013.5
20260506025533 1 31 8.0 14.5 0.00 0.00 0.00 57 1013.5
20260506025033 1 354 8.0 12.9 0.00 0.00 0.00 58 1013.5
20260506024540 1 4 4.8 11.3 0.00 0.00 0.00 59 1013.5
20260506024033 1 21 3.2 9.7 0.00 0.00 0.00 59 1013.6
20260506023533 1 349 3.2 9.7 0.00 0.00 0.00 59 1013.5
20260506023038 1 359 4.8 12.9 0.00 0.00 0.00 60 1013.5
20260506022532 1 11 6.4 14.5 0.00 0.00 0.00 58 1013.4
20260506022032 1 344 8.0 14.5 0.00 0.00 0.00 58 1013.6
20260506021551 1 17 6.4 14.5 0.00 0.00 0.00 59 1013.5
20260506021033 1 360 6.4 16.1 0.00 0.00 0.00 58 1013.6
20260506020534 1 16 8.0 16.1 0.00 0.00 0.00 57 1013.5
20260506020045 1 335 9.7 16.1 0.00 0.00 0.00 57 1013.5
20260506015532 1 11 9.7 14.5 0.00 0.00 0.00 57 1013.4
20260506015034 1 359 6.4 14.5 0.00 0.00 0.00 57 1013.5
20260506014545 1 344 8.0 16.1 0.00 0.00 0.00 57 1013.5
20260506014033 1 328 9.7 16.1 0.00 0.00 0.00 56 1013.4
20260506013532 2 357 9.7 16.1 0.00 0.00 0.00 56 1013.4
20260506013046 2 332 9.7 16.1 0.00 0.00 0.00 56 1013.4
20260506012533 1 360 9.7 14.5 0.00 0.00 0.00 56 1013.4
20260506012035 1 360 6.4 14.5 0.00 0.00 0.00 57 1013.4
20260506011540 1 13 4.8 16.1 0.00 0.00 0.00 57 1013.2
20260506011035 1 353 6.4 16.1 0.00 0.00 0.00 57 1013.3
20260506010533 1 322 1.6 6.4 0.00 0.00 0.00 57 1013.3
20260506010043 1 56 0.0 12.9 0.00 0.00 0.00 57 1013.3
20260506005533 1 0 1.6 12.9 0.00 0.00 0.00 57 1013.2
20260506005032 1 328 3.2 9.7 0.00 0.00 0.00 56 1013.2
20260506004538 1 47 0.0 9.7 0.00 0.00 0.00 56 1013.1
20260506004033 2 2 3.2 12.9 0.00 0.00 0.00 56 1013.1
20260506003534 2 28 6.4 12.9 0.00 0.00 0.00 56 1013.1
20260506003045 1 9 3.2 12.9 0.00 0.00 0.00 57 1013.1
20260506002537 1 345 1.6 9.7 0.00 0.00 0.00 57 1013.2
20260506002034 1 359 3.2 9.7 0.00 0.00 0.00 58 1013.1
20260506001544 1 342 0.0 11.3 0.00 0.00 0.00 57 1013.2
20260506001035 2 340 3.2 11.3 0.00 0.00 0.00 57 1013.1
20260506000535 2 8 6.4 14.5 0.00 0.00 0.00 57 1013.1
20260506000044 2 347 8.0 14.5 0.00 0.00 0.00 57 1013.1
20260505235535 2 356 9.7 14.5 0.00 0.00 0.00 56 1013.2
20260505235035 2 346 1.6 11.3 0.00 0.00 0.00 56 1013.3
20260505234557 2 347 6.4 14.5 0.00 0.00 0.00 56 1013.1
20260505234034 2 345 6.4 14.5 0.00 0.00 0.00 56 1013.1
20260505233535 2 32 8.0 11.3 0.00 0.00 0.00 56 1013.1
20260505233042 2 4 6.4 16.1 0.00 0.00 0.00 55 1013.2
20260505232535 2 35 8.0 16.1 0.00 0.00 0.00 55 1013.0
20260505232035 2 355 6.4 16.1 0.00 0.00 0.00 55 1013.1
20260505231546 2 321 8.0 16.1 0.00 0.00 0.00 57 1013.1
20260505231037 2 5 6.4 11.3 0.00 0.00 0.00 58 1013.1
20260505230534 2 338 6.4 11.3 0.00 0.00 0.00 59 1013.0
20260505230038 2 2 3.2 9.7 0.00 0.00 0.00 59 1013.1
20260505225535 2 51 1.6 8.0 0.00 0.00 0.00 58 1013.0
20260505225036 2 349 1.6 9.7 0.00 0.00 0.00 56 1013.1
20260505224546 3 345 6.4 12.9 0.00 0.00 0.00 55 1013.1
20260505224035 3 26 6.4 12.9 0.00 0.00 0.00 54 1013.0
20260505223535 3 345 8.0 12.9 0.00 0.00 0.00 54 1013.1
20260505223051 2 338 4.8 9.7 0.00 0.00 0.00 55 1013.1
20260505222535 3 0 0.0 8.0 0.00 0.00 0.00 56 1013.2
20260505222036 3 0 1.6 9.7 0.00 0.00 0.00 54 1013.0
20260505221549 3 345 4.8 9.7 0.00 0.00 0.00 53 1013.0
20260505221034 3 329 6.4 9.7 0.00 0.00 0.00 53 1013.1
20260505220539 2 4 4.8 8.0 0.00 0.00 0.00 55 1013.1
20260505220048 2 345 0.0 4.8 0.00 0.00 0.00 55 1013.2
20260505215535 3 0 1.6 4.8 0.00 0.00 0.00 54 1013.2
20260505215034 3 14 0.0 6.4 0.00 0.00 0.00 54 1013.1
20260505214550 3 0 0.0 6.4 0.00 0.00 0.00 53 1013.0
20260505214035 3 51 1.6 6.4 0.00 0.00 0.00 53 1013.0
20260505213535 3 44 1.6 6.4 0.00 0.00 0.00 52 1013.0
20260505213044 3 0 0.0 6.4 0.00 0.00 0.00 52 1013.0
20260505212534 4 6 0.0 8.0 0.00 0.00 0.00 51 1013.0
20260505212033 4 23 3.2 9.7 0.00 0.00 0.00 49 1013.0
20260505211539 4 333 6.4 9.7 0.00 0.00 0.00 49 1012.9
20260505211033 4 345 8.0 9.7 0.00 0.00 0.00 50 1012.9
20260505210532 4 12 1.6 6.4 0.00 0.00 0.00 50 1012.9
20260505210039 5 33 0.0 9.7 0.00 0.00 0.00 50 1012.9
20260505205533 5 0 1.6 17.7 0.00 0.00 0.00 47 1012.7
20260505205033 5 332 4.8 17.7 0.00 0.00 0.00 46 1012.6
20260505204539 6 326 11.3 17.7 0.00 0.00 0.00 44 1012.6
20260505204032 5 18 8.0 14.5 0.00 0.00 0.00 46 1012.6
20260505203532 5 345 1.6 6.4 0.00 0.00 0.00 51 1012.7
20260505203038 5 0 0.0 1.6 0.00 0.00 0.00 53 1012.5
20260505202537 5 0 0.0 9.7 0.00 0.00 0.00 53 1012.5
20260505202035 5 70 0.0 9.7 0.00 0.00 0.00 53 1012.5
20260505201538 5 9 0.0 4.8 0.00 0.00 0.00 58 1012.4
20260505201032 5 34 0.0 4.8 0.00 0.00 0.00 58 1012.3
20260505200532 5 0 0.0 4.8 0.00 0.00 0.00 63 1012.3
20260505200048 5 41 1.6 4.8 0.00 0.00 0.00 66 1012.3
20260505195535 5 293 1.6 4.8 0.00 0.00 0.00 68 1012.1
20260505195033 5 326 1.6 6.4 0.00 0.00 0.00 69 1012.1
20260505194540 6 314 0.0 6.4 0.00 0.00 0.00 68 1012.2
20260505194033 6 345 0.0 4.8 0.00 0.00 0.00 67 1012.1
20260505193532 6 0 0.0 1.6 0.00 0.00 0.00 67 1012.0
20260505193038 6 0 0.0 3.2 0.00 0.00 0.00 66 1012.0
20260505192533 6 250 0.0 3.2 0.00 0.00 0.00 66 1012.0
20260505192032 6 248 1.6 3.2 0.00 0.00 0.00 65 1011.9
20260505191540 7 176 0.0 3.2 0.00 0.00 0.00 63 1011.8
20260505191035 7 0 0.0 3.2 0.00 0.00 0.00 62 1011.8
20260505190532 7 136 0.0 4.8 0.00 0.00 0.00 62 1011.7
20260505190040 7 209 1.6 4.8 0.00 0.00 0.00 62 1011.7
20260505185532 7 148 1.6 4.8 0.00 0.00 0.00 61 1011.6
20260505185035 7 137 0.0 4.8 0.00 0.00 0.00 60 1011.7
20260505184537 7 0 1.6 4.8 0.00 0.00 0.00 60 1011.7
20260505184032 7 168 1.6 6.4 0.00 0.00 0.00 60 1011.5
20260505183532 7 145 1.6 6.4 0.00 0.00 0.00 59 1011.5
20260505183044 8 0 1.6 9.7 0.00 0.00 0.00 59 1011.6
20260505182534 8 155 4.8 9.7 0.00 0.00 0.00 59 1011.5
20260505182037 8 195 3.2 9.7 0.00 0.00 0.00 58 1011.5
20260505181545 8 174 3.2 11.3 0.00 0.00 0.00 58 1011.5
20260505181035 8 155 6.4 11.3 0.00 0.00 0.00 57 1011.4
20260505180538 8 175 6.4 12.9 0.00 0.00 0.00 56 1011.4
20260505180051 8 221 3.2 12.9 0.00 0.00 0.00 55 1011.4
20260505175534 8 205 6.4 17.7 0.00 0.00 0.00 55 1011.2
20260505175035 8 237 8.0 17.7 0.00 0.00 0.00 54 1011.4
20260505174553 8 233 9.7 17.7 0.00 0.00 0.00 54 1011.4
20260505174035 8 205 6.4 12.9 0.00 0.00 0.00 52 1011.4
20260505173535 8 269 4.8 12.9 0.00 0.00 0.00 53 1011.3
20260505173046 8 215 8.0 16.1 0.00 0.00 0.00 52 1011.3
20260505172535 8 202 9.7 20.9 0.00 0.00 0.00 50 1011.3
20260505172035 8 204 9.7 20.9 0.00 0.00 0.00 50 1011.4
20260505171545 8 229 14.5 22.5 0.00 0.00 0.00 50 1011.3
20260505171036 8 223 14.5 22.5 0.00 0.00 0.00 49 1011.1
20260505170535 8 219 14.5 22.5 0.00 0.00 0.00 47 1011.0
20260505170043 8 221 14.5 22.5 0.00 0.00 0.00 48 1011.1
20260505165534 8 166 14.5 22.5 0.00 0.00 0.00 47 1011.0
20260505165035 8 227 11.3 19.3 0.00 0.00 0.00 47 1011.0
20260505164542 9 262 12.9 24.1 0.00 0.00 0.00 46 1011.0
20260505164034 9 222 16.1 24.1 0.00 0.00 0.00 46 1011.0
20260505163535 8 217 14.5 24.1 0.00 0.00 0.00 45 1011.1
20260505163050 9 245 16.1 24.1 0.00 0.00 0.00 45 1010.9
20260505162535 9 220 16.1 24.1 0.00 0.00 0.00 44 1010.9
20260505162035 9 210 16.1 22.5 0.00 0.00 0.00 42 1010.9
20260505161546 9 231 14.5 24.1 0.00 0.00 0.00 44 1010.9
20260505161035 10 218 12.9 24.1 0.00 0.00 0.00 42 1010.8
20260505160535 10 224 16.1 24.1 0.00 0.00 0.00 42 1011.0
20260505153041 10 329 8.0 20.9 0.00 0.00 0.00 25 1010.8
20260505152533 10 347 9.7 20.9 0.00 0.00 0.00 24 1010.8
20260505152031 10 318 9.7 19.3 0.00 0.00 0.00 26 1010.9
20260505151540 10 319 11.3 19.3 0.00 0.00 0.00 25 1010.7
20260505151035 10 15 9.7 27.4 0.00 0.00 0.00 27 1010.8
20260505150533 10 273 8.0 27.4 0.00 0.00 0.00 26 1010.8
20260505140532 11 356 11.3 19.3 0.00 0.00 0.00 23 1010.9
20260505130107 10 70 4.8 24.1 0.00 0.00 0.00 24 1011.0
20260505125032 10 20 8.0 22.5 0.00 0.00 0.00 24 1011.2
20260505124551 10 244 9.7 22.5 0.00 0.00 0.00 22 1011.0
20260505124032 11 314 11.3 19.3 0.00 0.00 0.00 23 1011.1
20260505123534 11 310 9.7 30.6 0.00 0.00 0.00 25 1011.2
20260505123045 11 283 6.4 30.6 0.00 0.00 0.00 24 1011.0
20260505122532 10 243 11.3 30.6 0.00 0.00 0.00 23 1010.9
20260505122032 10 297 11.3 24.1 0.00 0.00 0.00 24 1011.0
20260505121551 10 344 12.9 20.9 0.00 0.00 0.00 22 1010.9
20260505121035 10 60 6.4 19.3 0.00 0.00 0.00 25 1010.9
20260505120535 11 243 8.0 19.3 0.00 0.00 0.00 22 1010.9
20260505120038 10 242 3.2 8.0 0.00 0.00 0.00 24 1011.0
20260505115534 10 150 1.6 22.5 0.00 0.00 0.00 25 1010.9
20260505115036 10 94 4.8 22.5 0.00 0.00 0.00 23 1010.9
20260505114547 10 340 12.9 22.5 0.00 0.00 0.00 23 1011.1
20260505114035 10 343 9.7 19.3 0.00 0.00 0.00 26 1010.9
20260505113535 10 334 6.4 17.7 0.00 0.00 0.00 23 1011.0
20260505113049 10 248 8.0 24.1 0.00 0.00 0.00 24 1011.1